EKVD

Kolding / Vamdrup

Airport
ICAO code
EKVD
Summary
ICAO Region
EUR
ICAO Territory
Location

Vamdrup,

Elevation
143 ft
Coordinates
55° 26' 11" N , 9° 19' 51" E
KCC
Metar
Observation
EKVD 062250Z AUTO 20007KT //// ///////// 00/M00 Q1040
Station
Vamdrup
Date/Time
2023-02-06 22:50:00
Wind direction
200°
Wind speed
07 kts
Lowest cloud amount
n/a
Temperature
0°C
Dew point
-0°C
Humidity
100%
QNH
1040 hPa
Weather condition
n/a

Description

5.4 nm SW of Kolding.

Climatology

Temperate Marine climate/Oceanic climate (Köppen climate classification Cfb). Moderately cool summer and comparatively warm winter with a temperature range of only 14°C. Prevailing south-westerly winds from the Atlantic Ocean.

Runways

Designator Length Width Surface Rops
8/26 704 23 GRS No/No
1/19 976 23 ASP No/No

Airport map

Aerial View

SKYbrary Partners:

Safety knowledge contributed by: